Powrót do katalogu

FENGYUN 1C DEB

AktywnySSO
NORAD 31917·DEBRIS·🇨🇳 China

Wystrzelony May 10, 1999 z Taiyuan Satellite Launch Center

Loading…

Następne Przeloty (najbliższe 24 godziny)

TLE

NieaktualneSource: Space-Track

Epoka: Sep 1, 2026, 17:24 UTC

1 31917U 99025CLU 26244.72553828  .00000541  00000-0  15819-3 0  9991
2 31917  98.3774 235.9616 0186780 224.3355 313.2064 14.38478114  1378

Śledź FENGYUN 1C DEB w czasie rzeczywistym z AllMySat

Download on the App Store